Location: Aichelberg
(48.6639°N, 8.5236°E)
Time: 00:54:57
(UTC+00:00)

Daily predictions for brighter satellites

Satellite Brightness Start Highest point End
(mag) Time Altitude Azimuth Time Altitude Azimuth Time Altitude Azimuth
Cosmos 2344 4.1 02:53:31 50° ESE 02:53:31 50° ESE 03:00:24 10° NE
USA 215 3.5 03:19:34 10° E 03:25:43 60° NE 03:25:43 60° NE
Cosmos 2369 Rocket 4.2 03:33:51 10° SSE 03:38:17 25° ESE 03:42:45 10° NE
NOSS 3-3 (A) 4.3 03:44:27 77° WNW 03:45:01 82° SW 03:53:28 10° SE
NOSS 3-3 (C) 4.3 03:44:31 77° WNW 03:45:07 83° SW 03:53:34 10° SE
COSMO-SKYMED 1 4.2 03:44:19 10° SE 03:48:09 32° ENE 03:48:36 31° NE
Cosmos 1867 4.5 03:50:15 40° SSE 03:50:15 40° SSE 03:53:40 10° SSE
MOS 1-B Rocket 4.3 03:45:10 10° SSE 03:51:18 60° ENE 03:54:14 29° N
Tsikada Rocket 4.3 03:46:52 10° S 03:52:57 64° E 03:59:12 10° NNE
Gblst 52 Del rocket 4.4 03:54:35 74° SSE 03:54:44 74° SSE 04:01:23 10° ENE
Cosmos 1943 Rocket 2.1 04:06:38 71° S 04:07:16 85° ESE 04:12:57 10° NNE
CZ-2C R/B 3.2 04:03:55 10° SSE 04:09:17 57° ENE 04:13:24 17° N
Cosmos 1241 Rocket 4.3 04:10:32 70° WSW 04:10:38 70° WSW 04:16:46 10° SSE
SL-19 R/B 4.2 04:05:55 10° SSE 04:11:31 85° ENE 04:13:21 45° NNW
SL-8 R/B 3.7 04:16:23 77° ESE 04:16:23 77° ESE 04:20:51 10° E
CENTAUR R/B 2.4 04:16:08 55° SW 04:17:40 84° NW 04:24:55 10° NE
Cosmos 2297 3.6 04:21:06 59° SW 04:22:12 77° WNW 04:27:58 10° NNE
Iridium 2 4.4 04:23:36 10° SSE 04:27:16 51° E 04:30:58 10° NNE
SL-24 R/B 4.4 04:23:29 10° N 04:27:42 59° NNW 04:27:42 59° NNW
NOSS 3-2 (A) 3.3 04:27:49 56° W 04:28:42 62° NW 04:35:20 10° NE
Cosmos 2278 Rocket 3.8 04:33:50 19° NNW 04:33:50 19° NNW 04:36:24 10° N
Envisat 3.1 04:30:02 10° NNE 04:35:08 75° ESE 04:40:13 10° S
Meteor 2-6 Rocket 4.5 04:30:21 10° N 04:35:46 65° ENE 04:41:07 10° SSE
SKYMED 2 3.4 04:31:43 10° SSE 04:36:04 89° W 04:37:12 49° NNW
NOSS 3-2 (C) 3.2 04:33:35 35° SW 04:36:10 85° NW 04:42:47 10° NE
Cosmos 2098 Rocket 3.2 04:38:20 10° S 04:42:12 72° E 04:47:08 10° NNE
Meteor 2-3 Rocket 3.7 04:37:21 10° SSW 04:42:55 59° WNW 04:48:36 10° N
Landsat 5 3.6 04:41:11 10° SSE 04:45:42 89° ENE 04:48:26 24° NNW
Cosmos 968 Rocket 3.3 04:42:38 19° SSW 04:46:17 71° WNW 04:51:26 10° NNE
Meteor 2-13 Rocket 4.3 04:41:14 10° SSW 04:47:21 79° W 04:53:29 10° N
CZ-4B R/B 4.2 04:43:12 10° NNE 04:47:40 80° ESE 04:52:08 10° S
Genesis I 4.3 04:49:24 33° SSW 04:49:24 33° SSW 04:52:18 10° S
FALCON 9 DEB 4.1 04:49:58 33° NE 04:49:58 33° NE 04:51:49 10° ENE
Cosmos 921 Rocket 3.1 04:50:35 52° W 04:50:44 52° WSW 04:55:04 10° S
Okean 3 Rocket 3.9 04:49:21 10° S 04:53:51 70° E 04:58:24 10° NNE
DNEPR-1 R/B 3.8 04:53:15 38° NW 04:55:09 84° SW 05:00:45 10° SE
Cosmos 1833 4.2 04:51:16 21° NNW 04:55:13 82° ENE 05:00:58 10° SSE
H-2A R/B 3.4 04:52:27 10° SE 04:56:24 38° ENE 05:00:27 10° N
Cosmos 1812 2.7 04:56:57 56° W 04:57:05 57° W 05:00:51 10° S
CBERS 1 LM4 rocket 4.3 04:53:31 10° NNE 04:58:22 85° WNW 05:03:22 10° SSW
ADEOS 4.0 04:53:27 10° NNE 04:58:40 63° ESE 05:03:50 10° S
Cosmos 2142 Rocket 4.4 04:57:25 10° NNW 05:03:44 73° W 05:10:05 10° S
Cosmos 1151 Rocket 3.0 05:01:35 26° NNW 05:03:56 59° W 05:08:14 10° S
USA 238 DEB 3.7 05:00:11 23° WSW 05:04:24 60° NW 05:11:17 10° NE
USA 238 3.7 05:00:14 22° WSW 05:04:30 60° NW 05:11:24 10° NE
CZ-2C R/B 3.9 05:01:55 10° NNE 05:06:38 50° E 05:11:31 10° S
Cosmos 1766 Rocket 3.4 05:02:42 10° SSW 05:07:02 78° W 05:11:24 10° N
Cosmos 2344 3.8 05:03:34 26° W 05:07:31 47° NNW 05:15:29 10° NE
Cosmos 2263 4.3 05:02:19 10° SSW 05:08:01 84° ESE 05:13:49 10° NNE
USA 215 3.4 05:02:36 10° SE 05:09:02 60° SW 05:13:04 24° WNW
Meteor PRIRODA 4.5 05:08:27 10° NNE 05:12:00 51° E 05:15:32 10° S
Kosmos-917 4.3 05:12:30 36° WNW 05:13:12 42° NNW 05:18:39 10° NE
Meteor 1-31 Rocket 2.8 05:09:45 10° N 05:13:34 55° WNW 05:17:23 10° SSW
Cosmos 2279 Rocket 3.9 05:08:22 10° NNW 05:14:30 64° W 05:20:35 10° S
Cosmos 2297 Rocket 4.2 05:10:57 10° N 05:15:22 22° NE 05:19:44 10° E
Cosmos 1328 Rocket 3.5 05:12:41 12° NNW 05:16:37 61° W 05:20:55 10° S
IRAS Rocket 4.1 05:12:19 10° SSE 05:17:50 84° WSW 05:23:22 10° NNW
BREEZE-M DEB (TANK) 4.4 05:06:13 10° SW 05:18:02 45° SSE 05:21:37 10° E
SJ-12 4.4 05:15:05 10° N 05:18:56 38° WNW 05:22:46 10° SW
Cosmos 2369 Rocket 2.2 05:16:22 10° SW 05:21:53 60° WNW 05:27:27 10° NNE
FALCON 9 DEB 3.2 05:21:07 36° WNW 05:22:12 57° NNW 05:25:34 10° ENE
Cosmos 1862 3.3 05:19:31 10° SSW 05:23:22 52° WNW 05:27:14 10° N
COSMO-SKYMED 1 3.4 05:20:28 10° SSW 05:24:18 30° W 05:25:48 24° WNW
Nadezhda 4 Rocket 4.3 05:20:22 10° S 05:26:28 72° E 05:32:42 10° NNE
H-2A R/B 3.5 05:23:41 10° N 05:26:54 28° WNW 05:30:07 10° SW
H-2A R/B 4.2 05:29:21 10° NE 05:33:32 27° E 05:37:42 10° SSE
Meteor 2-15 Rocket 4.4 05:28:09 10° N 05:34:16 84° W 05:40:20 10° S
Cosmos 2228 Rocket 4.2 05:30:24 10° N 05:34:44 45° ENE 05:39:03 10° SSE
CZ-4B R/B 2.5 05:32:47 10° NNE 05:36:24 89° ESE 05:39:57 10° SSW
Lacrosse 4 Rocket 4.0 05:35:38 10° N 05:37:29 12° NNE 05:39:20 10° NE
CZ-4B R/B 2.3 05:36:54 10° SSE 05:40:07 49° ENE 05:43:19 10° N
Cosmos 1408 Rocket 3.4 05:38:09 10° SSW 05:42:25 70° W 05:46:45 10° N
CZ-4C R/B 4.1 05:42:46 10° SSW 05:45:15 21° W 05:46:01 20° WNW
Cosmos 1656 Rocket 3.7 05:40:18 10° SW 05:45:35 53° WNW 05:50:56 10° NNE
DMSP B5D2-2 4.2 05:40:30 10° S 05:45:36 54° W 05:50:44 10° NNW
Cosmos 1503 Rocket 4.0 05:40:42 10° SW 05:45:55 63° WNW 05:51:15 10° NNE
USA 32 4.3 05:41:05 10° N 05:46:21 75° E 05:51:35 10° S
Cosmos 1743 Rocket 3.7 05:45:23 10° S 05:49:45 77° E 05:54:08 10° NNE
CZ-2C R/B 3.7 05:45:32 10° SW 05:49:55 24° W 05:54:14 10° NW
Cosmos 2227 Rocket 3.9 05:46:03 10° NNW 05:50:51 27° NE 05:55:37 10° ESE
Cosmos 1943 Rocket 3.3 05:48:15 13° W 05:51:45 23° NW 05:56:09 10° N
FAST Rocket 4.0 05:49:19 10° S 05:51:55 82° E 05:55:01 10° N
Cosmos 1515 Rocket 3.9 05:52:45 10° NNW 05:56:53 42° W 06:00:58 10° SSW
PSLV R/B 4.2 05:53:30 10° SSE 05:57:32 71° ENE 06:01:38 10° N
Cosmos 1777 Rocket 4.1 05:52:24 10° SSW 05:57:36 82° ESE 06:02:52 10° NNE
SL-8 R/B 4.4 05:54:22 13° W 05:58:23 43° SSW 06:02:53 10° SE
FALCON 9 DEB 3.7 05:56:51 16° WNW 05:58:44 33° N 06:01:24 10° ENE
Meteor 1-27 Rocket 3.8 05:54:25 10° NNW 05:59:57 59° W 06:05:33 10° S
NOAA 6 4.2 05:56:45 10° NNE 06:01:55 82° ESE 06:07:02 10° SSW
Cosmos 1602 4.2 05:58:25 10° S 06:02:10 64° E 06:05:58 10° NNE
COSMOS 2487 2.5 06:00:53 10° NNW 06:04:15 75° ENE 06:07:35 10° SSE
Cosmos 773 Rocket 4.3 05:59:33 10° NNW 06:04:33 46° WSW 06:09:29 10° S
FALCON 9 DEB 3.7 06:03:16 14° WNW 06:05:23 32° N 06:08:00 10° ENE
SJ 16-02 1.3 06:02:45 10° SSW 06:07:08 87° WNW 06:11:33 10° NNE
FALCON 9 DEB 3.7 06:05:15 13° WNW 06:07:28 32° N 06:10:05 10° ENE
CENTAUR R/B 3.5 06:03:36 10° W 06:09:26 33° NNW 06:16:15 10° NE
Alouette 2 Rocket 3.3 06:06:34 10° NNW 06:10:29 57° W 06:13:57 10° S
NOAA 12 4.2 06:07:50 10° N 06:13:01 56° WNW 06:18:07 10° SW
Cosmos 1689 Rocket 4.4 06:11:30 10° ESE 06:13:27 19° ENE 06:15:23 10° NNE
Envisat 4.3 06:10:08 10° NNW 06:13:36 19° WNW 06:17:04 10° W
Cosmos 1340 Rocket 2.8 06:11:22 10° SSW 06:15:16 59° WNW 06:19:14 10° N
SL-27 R/B 3.5 06:14:37 10° NW 06:17:45 28° WSW 06:20:50 10° SSW
Cosmos 1500 Rocket 3.7 06:14:21 10° SSW 06:18:42 53° WNW 06:23:07 10° N
Cosmos 1939 Rocket 3.1 06:15:51 10° N 06:19:37 43° WNW 06:23:19 10° SW
Cosmos 2219 4.3 06:16:22 10° NNW 06:21:42 41° NE 06:27:02 10° ESE
FALCON 9 DEB 3.7 06:21:48 10° WNW 06:24:27 32° N 06:27:08 10° ENE
